DW0088 Weather Reports


Display with metric or nautical units.
time (UTC)temp
F
wind
direction
speed
MPH
gust
MPH
rain 1hr
in
rain 24hr
in
rain mn
in
humidity
%
barometer
mb
20260506152942 53 357 8.0 13.0 0.00 0.06 0.06 78 1008.7
20260506151942 53 345 9.0 15.0 0.00 0.06 0.06 78 1008.7
20260506150942 53 10 6.0 11.0 0.00 0.06 0.06 77 1008.7
20260506145943 54 355 8.0 16.0 0.00 0.06 0.06 77 1008.7
20260506144942 54 16 7.0 12.0 0.00 0.06 0.06 75 1008.7
20260506143942 54 328 7.0 12.0 0.00 0.06 0.06 75 1008.7
20260506142942 54 12 6.0 9.0 0.00 0.06 0.06 75 1008.6
20260506141943 54 295 7.0 10.0 0.00 0.06 0.06 75 1008.6
20260506140942 54 357 7.0 12.0 0.00 0.06 0.06 74 1008.6
20260506135942 54 356 7.0 11.0 0.00 0.06 0.06 77 1008.6
20260506134942 53 41 7.0 13.0 0.00 0.06 0.06 75 1008.6
20260506133942 53 354 8.0 16.0 0.00 0.06 0.06 75 1008.6
20260506131942 53 25 7.0 12.0 0.00 0.06 0.06 75 1008.5
20260506130943 53 21 7.0 13.0 0.00 0.06 0.06 77 1008.5
20260506125943 53 27 8.0 16.0 0.00 0.06 0.06 77 1008.3
20260506124942 53 22 7.0 11.0 0.00 0.06 0.06 79 1008.3
20260506123944 53 30 8.0 14.0 0.00 0.06 0.06 77 1008.3
20260506122942 53 25 8.0 16.0 0.00 0.06 0.06 77 1008.2
20260506121943 53 19 8.0 12.0 0.00 0.06 0.06 77 1008.2
20260506120943 54 13 7.0 14.0 0.00 0.06 0.06 76 1008.1
20260506115943 54 14 6.0 12.0 0.00 0.06 0.06 77 1008.1
20260506114943 54 17 7.0 12.0 0.00 0.06 0.06 77 1008.1
20260506113943 54 359 8.0 14.0 0.00 0.06 0.06 80 1008.0
20260506112943 54 33 7.0 13.0 0.00 0.06 0.06 80 1008.0
20260506111942 54 42 10.0 13.0 0.00 0.06 0.06 82 1008.0
20260506105943 54 33 8.0 13.0 0.00 0.06 0.06 83 1008.1
20260506104943 53 32 9.0 14.0 0.00 0.06 0.06 84 1008.1
20260506103943 54 27 7.0 13.0 0.00 0.06 0.06 86 1007.8
20260506102943 53 29 8.0 12.0 0.00 0.06 0.06 86 1007.7
20260506101943 53 37 9.0 14.0 0.00 0.06 0.06 86 1007.7
20260506100943 53 31 7.0 12.0 0.00 0.06 0.06 87 1007.7
20260506095943 53 31 6.0 12.0 0.00 0.06 0.06 86 1007.6
20260506094943 53 12 7.0 13.0 0.01 0.06 0.06 86 1007.6
20260506092944 53 357 6.0 11.0 0.01 0.06 0.06 88 1007.4
20260506091943 53 356 7.0 13.0 0.01 0.06 0.06 88 1007.4
20260506090943 52 349 9.0 17.0 0.01 0.06 0.06 88 1007.3
20260506085943 52 351 7.0 11.0 0.01 0.06 0.06 91 1007.2
20260506084944 52 27 6.0 10.0 0.00 0.06 0.05 91 1007.2
20260506083943 51 8 7.0 10.0 0.00 0.06 0.05 92 1007.1
20260506082943 51 358 7.0 11.0 0.00 0.06 0.05 92 1007.1
20260506080943 51 344 6.0 10.0 0.00 0.06 0.05 94 1007.1
20260506072943 50 308 7.0 11.0 0.00 0.06 0.05 96 1007.1
20260506071943 49 307 7.0 10.0 0.00 0.07 0.05 96 1007.1
20260506070943 49 304 6.0 10.0 0.00 0.07 0.05 96 1007.1
20260506042944 48 2 6.0 10.0 0.00 0.09 0.04 97 1006.6
20260506041944 48 357 6.0 12.0 0.00 0.10 0.04 97 1006.6
20260506040944 48 352 6.0 10.0 0.00 0.11 0.04 98 1006.6
20260506034943 48 342 7.0 12.0 0.00 0.12 0.04 98 1006.6
20260506033944 48 353 7.0 11.0 0.00 0.13 0.04 98 1006.6
20260506032944 48 342 7.0 11.0 0.00 0.13 0.04 98 1006.7
20260506031944 48 345 7.0 12.0 0.01 0.13 0.04 98 1006.7
20260506030943 48 357 6.0 11.0 0.01 0.13 0.04 97 1006.8
20260506025944 48 329 7.0 13.0 0.01 0.13 0.04 97 1006.9
20260506024944 48 356 7.0 10.0 0.02 0.13 0.04 97 1006.9
20260506023944 48 349 7.0 11.0 0.02 0.13 0.04 97 1007.0
20260506022944 48 355 6.0 10.0 0.02 0.13 0.03 97 1007.1
20260506020945 48 352 7.0 11.0 0.02 0.13 0.03 96 1007.1
20260506015944 48 339 7.0 10.0 0.02 0.13 0.03 96 1007.1
20260506014944 49 350 6.0 9.0 0.02 0.12 0.02 95 1007.1
20260506011944 49 6 6.0 9.0 0.01 0.10 0.01 93 1007.1
20260506010944 49 8 5.0 9.0 0.01 0.10 0.01 92 1007.2
20260506005944 49 8 6.0 10.0 0.01 0.11 0.01 92 1007.4
20260506004944 49 18 6.0 16.0 0.00 0.11 0.00 91 1007.4
20260506002944 50 11 6.0 10.0 0.00 0.11 0.00 90 1007.6
20260506001944 50 17 6.0 11.0 0.00 0.12 0.00 90 1007.6
20260506000945 50 6 7.0 12.0 0.00 0.13 0.00 91 1007.7
20260505235945 50 13 6.0 11.0 0.00 0.13 0.00 91 1007.7
20260505234946 50 11 7.0 12.0 0.00 0.13 0.00 91 1007.7
20260505233945 50 11 6.0 11.0 0.00 0.13 0.00 91 1007.8
20260505232945 50 13 7.0 11.0 0.00 0.15 0.00 91 1007.8
20260505225945 50 4 8.0 15.0 0.00 0.18 0.00 91 1008.1
20260505223945 50 1 7.0 13.0 0.00 0.19 0.00 92 1008.1
20260505221945 51 13 6.0 12.0 0.00 0.20 0.00 93 1008.2
20260505220945 51 356 5.0 10.0 0.00 0.20 0.00 93 1008.3
20260505215950 51 4 5.0 8.0 0.00 0.20 0.00 93 1008.3
20260505214945 51 18 6.0 10.0 0.00 0.20 0.20 93 1008.3
20260505213944 51 21 7.0 12.0 0.00 0.20 0.20 92 1008.4
20260505212945 51 19 6.0 13.0 0.00 0.20 0.20 93 1008.5
20260505211945 51 17 4.0 9.0 0.00 0.20 0.20 93 1008.5
20260505205945 51 21 5.0 8.0 0.00 0.20 0.20 93 1008.6
20260505204944 51 27 5.0 8.0 0.00 0.20 0.20 93 1008.6
20260505203945 51 21 5.0 8.0 0.00 0.20 0.20 93 1008.6
20260505202945 51 18 5.0 10.0 0.00 0.20 0.20 93 1008.6
20260505201944 52 18 6.0 11.0 0.00 0.21 0.20 92 1008.6
20260505200945 52 25 7.0 11.0 0.00 0.22 0.20 91 1008.5
20260505195946 52 35 7.0 12.0 0.00 0.24 0.20 91 1008.4
20260505194944 52 30 4.0 10.0 0.00 0.29 0.20 92 1008.4
20260505193946 52 31 5.0 9.0 0.00 0.31 0.20 92 1008.2
20260505192946 52 37 5.0 8.0 0.00 0.31 0.20 92 1008.1
20260505191945 52 29 3.0 6.0 0.00 0.31 0.20 92 1008.1
20260505190945 52 28 3.0 5.0 0.00 0.31 0.20 92 1008.1
20260505185945 52 25 3.0 6.0 0.00 0.31 0.20 92 1008.1
20260505184945 52 34 4.0 7.0 0.00 0.31 0.20 92 1008.1
20260505182945 52 30 4.0 9.0 0.00 0.31 0.20 92 1008.1
20260505180945 52 22 5.0 8.0 0.00 0.31 0.20 92 1008.0
20260505175947 52 12 4.0 7.0 0.00 0.31 0.20 93 1008.0
20260505174945 53 15 4.0 7.0 0.00 0.31 0.20 93 1008.0
20260505172945 53 19 4.0 7.0 0.00 0.31 0.20 93 1008.1
20260505171947 53 24 4.0 7.0 0.00 0.31 0.20 93 1008.1
20260505170945 53 28 5.0 9.0 0.00 0.31 0.20 93 1008.2
20260505165946 53 29 5.0 10.0 0.00 0.31 0.20 92 1008.3
20260505164945 53 34 6.0 9.0 0.00 0.31 0.20 93 1008.3
20260505163947 53 32 6.0 9.0 0.00 0.31 0.20 93 1008.4
20260505162945 53 32 5.0 8.0 0.00 0.31 0.20 93 1008.3
20260505161946 53 28 6.0 10.0 0.00 0.31 0.20 93 1008.3